AXB2891 VASU-VOBL

Flight info

Callsign AXB2891
Flight time N/A
Altitude 39000
Route BOFIN R458 BBB Q9 RIKBU
Aircraft B38M/M-SDE1FGHILORVWXY/HB1

Departure

Time N/A
Airport Surat International Airport (VASU)

Arrival

Time 2026-05-04 18:16
Airport Kempegowda International Airport Bengaluru (VOBL)
Time Latitude Longitude Altitude Speed Heading
2026-05-04 18:02 13.69325 77.15614 13923 ft 289 kts 167°
2026-05-04 18:02 13.67374 77.16013 13681 ft 288 kts 167°
2026-05-04 18:03 13.65409 77.16411 13443 ft 287 kts 167°
2026-05-04 18:03 13.63452 77.16809 13192 ft 286 kts 167°
2026-05-04 18:03 13.61492 77.17210 12944 ft 286 kts 167°
2026-05-04 18:03 13.59539 77.17609 12701 ft 285 kts 167°
2026-05-04 18:04 13.57590 77.18011 12451 ft 285 kts 167°
2026-05-04 18:04 13.55666 77.18407 12205 ft 284 kts 167°
2026-05-04 18:04 13.51781 77.19216 11715 ft 283 kts 167°
2026-05-04 18:05 13.49849 77.19623 11474 ft 282 kts 167°
2026-05-04 18:05 13.47947 77.20027 11242 ft 282 kts 167°
2026-05-04 18:05 13.46018 77.20438 11007 ft 282 kts 167°
2026-05-04 18:05 13.44095 77.20854 10768 ft 282 kts 167°
2026-05-04 18:06 13.40249 77.21704 10293 ft 282 kts 167°
2026-05-04 18:06 13.38331 77.22136 10068 ft 282 kts 167°
2026-05-04 18:06 13.36435 77.22571 9828 ft 282 kts 167°
2026-05-04 18:07 13.34514 77.23013 9578 ft 282 kts 167°
2026-05-04 18:07 13.32595 77.23455 9320 ft 282 kts 167°
2026-05-04 18:07 13.30775 77.24153 9039 ft 278 kts 143°
2026-05-04 18:07 13.29354 77.25472 8800 ft 273 kts 133°
2026-05-04 18:08 13.28057 77.26852 8560 ft 271 kts 133°
2026-05-04 18:08 13.26759 77.28244 8295 ft 268 kts 133°
2026-05-04 18:08 13.25476 77.29626 8066 ft 265 kts 133°
2026-05-04 18:08 13.24216 77.30990 7859 ft 261 kts 133°
2026-05-04 18:09 13.21789 77.33707 7376 ft 255 kts 124°
2026-05-04 18:09 13.20971 77.37095 7044 ft 243 kts 91°
2026-05-04 18:10 13.20960 77.38829 7017 ft 242 kts 91°
2026-05-04 18:10 13.20950 77.40564 6992 ft 242 kts 91°
2026-05-04 18:10 13.20937 77.42270 6989 ft 241 kts 91°
2026-05-04 18:10 13.20924 77.43989 6983 ft 241 kts 91°
2026-05-04 18:11 13.20909 77.45711 6984 ft 241 kts 91°
2026-05-04 18:11 13.20895 77.47423 6829 ft 238 kts 91°
2026-05-04 18:11 13.20881 77.49110 6589 ft 232 kts 92°
2026-05-04 18:11 13.20867 77.50733 6298 ft 227 kts 92°
2026-05-04 18:12 13.20853 77.52341 5999 ft 223 kts 93°
2026-05-04 18:12 13.20840 77.53919 5707 ft 218 kts 93°
2026-05-04 18:12 13.20828 77.55453 5433 ft 212 kts 93°
2026-05-04 18:12 13.20815 77.56955 5163 ft 208 kts 94°
2026-05-04 18:13 13.20803 77.58409 4905 ft 204 kts 94°
2026-05-04 18:13 13.20792 77.59805 4683 ft 185 kts 95°
2026-05-04 18:13 13.20772 77.62266 4259 ft 160 kts 96°
2026-05-04 18:14 13.20760 77.63398 4027 ft 158 kts 95°
2026-05-04 18:14 13.20753 77.64521 3841 ft 156 kts 93°
2026-05-04 18:14 13.20752 77.65633 3615 ft 155 kts 95°
2026-05-04 18:15 13.20725 77.67799 3196 ft 150 kts 93°
2026-05-04 18:15 13.20706 77.69809 2987 ft 109 kts 92°
2026-05-04 18:15 13.20702 77.70445 2972 ft 76 kts 91°
2026-05-04 18:16 13.20699 77.70786 2965 ft 37 kts 96°
2026-05-04 18:16 13.20613 77.71032 2947 ft 38 kts 121°
2026-05-04 18:16 13.20560 77.71125 2954 ft 5 kts 120°
2026-05-04 18:17 13.20461 77.71175 2941 ft 12 kts 180°
2026-05-04 18:17 13.20393 77.71174 2944 ft 7 kts 180°
2026-05-04 18:17 13.20280 77.71153 2953 ft 9 kts 217°
2026-05-04 18:18 13.20261 77.71097 2954 ft 8 kts 269°
2026-05-04 18:18 13.20260 77.71035 2955 ft 9 kts 269°
2026-05-04 18:18 13.20257 77.70991 2956 ft 2 kts 239°
2026-05-04 18:18 13.20250 77.70987 2951 ft 1 kts 208°
2026-05-04 18:19 13.20217 77.70981 2951 ft 4 kts 180°
2026-05-04 18:19 13.20187 77.70981 2955 ft 1 kts 180°
2026-05-04 18:19 13.20177 77.70981 2949 ft 0 kts 180°